Weather History for KBWP - October, 2013

Change the Weather History Date:

Saturday, October 19, 2013

  Actual Average (KFFM) Record (KFFM)
Temperature  
Mean Temperature 35 °F -  
Max Temperature 37 °F 53 °F 87 °F (2003)
Min Temperature 33 °F 31 °F 12 °F (1972)
Degree Days  
Heating Degree Days 30    
Moisture  
Dew Point 33 °F    
Average Humidity 90    
Maximum Humidity 93    
Minimum Humidity 81    
Precipitation  
Precipitation 0.13 in - - ()
Sea Level Pressure  
Sea Level Pressure 29.75 in    
Wind  
Wind Speed 3 mph (ESE)    
Max Wind Speed 14 mph    
Max Gust Speed 18 mph    
Visibility 10 miles    
Events      
Averages and records for this station are not official NWS values.
T = Trace of Precipitation, MM = Missing Value Source: NWS Daily Summary

Daily Weather History Graph

Daily Weather History Graph

Search for Another Location

Airport or City:

Trip Planner

Search our weather history database for the weather conditions in past years. The results will help you decide how hot, cold, wet, or windy it might be!

Date:

Astronomy

Oct. 19, 2013 Rise Set
Actual Time 7:49 AM CDT 6:32 PM CDT
Civil Twilight 7:18 AM CDT 7:02 PM CDT
Nautical Twilight 6:44 AM CDT 7:37 PM CDT
Astronomical Twilight 6:09 AM CDT 8:12 PM CDT
Moon 6:56 PM CDT (10/19) 8:31 AM CDT (10/19)
Length of Visible Light 11h 43m
Length of Day
10h 42m
Waxing Gibbous, 99% of the Moon is Illuminated
Oct 19
Waxing Gibbous
Oct 26
Last Quarter
Nov 3
New
Nov 9
First Quarter
Nov 17
Full

Hourly Weather History & Observations

Time (CDT) Temp. Windchill Dew Point Humidity Pressure Visibility Wind Dir Wind Speed Gust Speed Precip Events Conditions
12:15 AM 37.4 °F 34.9 °F 35.6 °F 93% 29.79 in 10.0 mi WNW 3.5 mph - 0.02 in   Overcast
12:35 AM 37.4 °F - 35.6 °F 93% 29.78 in 10.0 mi Calm Calm - 0.02 in   Overcast
12:55 AM 37.4 °F - 35.6 °F 93% 29.77 in 10.0 mi Calm Calm - 0.02 in   Overcast
1:15 AM 37.4 °F - 35.6 °F 93% 29.76 in 5.0 mi Calm Calm - 0.01 in   Overcast
1:35 AM 37.4 °F - 35.6 °F 93% 29.76 in 4.0 mi Calm Calm - 0.05 in   Overcast
1:55 AM 37.4 °F 34.9 °F 33.8 °F 87% 29.75 in 7.0 mi NNW 3.5 mph - 0.07 in   Overcast
2:15 AM 35.6 °F 29.2 °F 33.8 °F 93% 29.75 in 10.0 mi NNE 8.1 mph - N/A   Overcast
2:35 AM 35.6 °F 31.7 °F 33.8 °F 93% 29.74 in 10.0 mi NNE 4.6 mph - N/A   Overcast
2:55 AM 35.6 °F - 33.8 °F 93% 29.74 in 10.0 mi Calm Calm - N/A   Overcast
3:15 AM 35.6 °F - 33.8 °F 93% 29.73 in 10.0 mi Calm Calm - 0.01 in   Overcast
3:35 AM 35.6 °F - 33.8 °F 93% 29.73 in 10.0 mi Calm Calm - 0.01 in   Overcast
3:55 AM 35.6 °F - 33.8 °F 93% 29.72 in 10.0 mi Calm Calm - 0.01 in   Mostly Cloudy
4:35 AM 35.6 °F - 33.8 °F 93% 29.71 in 10.0 mi Calm Calm - N/A   Overcast
4:55 AM 35.6 °F - 33.8 °F 93% 29.70 in 10.0 mi Calm Calm - N/A   Overcast
6:55 AM 37.4 °F 32.1 °F 33.8 °F 87% 29.70 in 10.0 mi WNW 6.9 mph - 0.02 in   Overcast
7:15 AM 37.4 °F 30.8 °F 35.6 °F 93% 29.71 in 10.0 mi NW 9.2 mph - N/A   Overcast
7:35 AM 35.6 °F 27.5 °F 33.8 °F 93% 29.72 in 10.0 mi NNW 11.5 mph - 0.01 in   Overcast
7:55 AM 35.6 °F 26.6 °F 33.8 °F 93% 29.73 in 10.0 mi NNW 13.8 mph 18.4 mph 0.01 in   Overcast
6:35 PM 37.4 °F 34.9 °F 32.0 °F 81% 29.79 in 10.0 mi ENE 3.5 mph - N/A   Clear
6:55 PM 37.4 °F 33.8 °F 32.0 °F 81% 29.79 in 10.0 mi East 4.6 mph - N/A   Clear
7:15 PM 35.6 °F 32.8 °F 32.0 °F 87% 29.79 in 10.0 mi ESE 3.5 mph - N/A   Clear
7:35 PM 35.6 °F 32.8 °F 32.0 °F 87% 29.79 in 10.0 mi ESE 3.5 mph - N/A   Clear
7:55 PM 35.6 °F 32.8 °F 32.0 °F 87% 29.79 in 10.0 mi East 3.5 mph - N/A   Clear
8:15 PM 35.6 °F 32.8 °F 32.0 °F 87% 29.78 in 10.0 mi SE 3.5 mph - N/A   Clear
8:35 PM 35.6 °F 31.7 °F 32.0 °F 87% 29.78 in 10.0 mi ESE 4.6 mph - N/A   Clear
8:55 PM 35.6 °F 31.7 °F 32.0 °F 87% 29.78 in 10.0 mi SE 4.6 mph - N/A   Clear
9:15 PM 33.8 °F 29.6 °F 32.0 °F 93% 29.78 in 10.0 mi SE 4.6 mph - N/A   Scattered Clouds
9:35 PM 33.8 °F 29.6 °F 32.0 °F 93% 29.78 in 10.0 mi SE 4.6 mph - N/A   Mostly Cloudy
9:55 PM 33.8 °F 28.6 °F 32.0 °F 93% 29.77 in 10.0 mi SE 5.8 mph - N/A   Mostly Cloudy
10:15 PM 33.8 °F 28.6 °F 30.2 °F 87% 29.77 in 10.0 mi SSE 5.8 mph - N/A   Overcast
10:35 PM 35.6 °F 30.7 °F 32.0 °F 87% 29.76 in 10.0 mi SSE 5.8 mph - N/A   Overcast
10:55 PM 35.6 °F 29.9 °F 32.0 °F 87% 29.75 in 10.0 mi SSE 6.9 mph - N/A   Overcast
11:15 PM 35.6 °F 29.9 °F 32.0 °F 87% 29.74 in 10.0 mi SSE 6.9 mph - N/A   Overcast
11:35 PM 35.6 °F 29.9 °F 32.0 °F 87% 29.74 in 10.0 mi SSE 6.9 mph - N/A   Overcast
11:55 PM 35.6 °F 29.2 °F 32.0 °F 87% 29.73 in 10.0 mi SSE 8.1 mph - N/A   Mostly Cloudy